DateTimeUTC,F1_A11,F1_S11,BsB_S11,BsG_S11,BsR_S11,BbsB_S11,BbsG_S11,BbsR_S11,BaB_A11,BaG_A11,BaR_A11,Tu_S11,T_S11,Uu_S11,U_S11,P_S11,T1_A11
2021-12-10T11:00:00Z,00000200,21000000,,,,,,,0000.35,0000.22,-000.05,19.5,26.5,,00.0,0650.8,31.1
2021-12-10T11:01:00Z,00000200,21000000,,,,,,,-000.39,-000.16,-000.14,19.5,26.5,,00.0,0650.9,31.1
2021-12-10T11:02:00Z,00000200,21000000,,,,,,,0000.15,-000.21,0000.19,19.5,26.5,,00.0,0650.9,31.1
2021-12-10T11:03:00Z,00000200,61000000,,,,,,,-000.33,-000.04,0000.06,19.5,26.5,,00.0,0650.9,31.1
2021-12-10T11:04:00Z,00000200,41000000,-000.11,-000.49,0000.07,-000.34,0000.16,0000.05,0000.22,-000.21,-000.05,19.7,26.4,,00.0,0651.8,31.1
2021-12-10T11:05:00Z,00000200,01000000,-000.16,-000.43,-000.33,-000.26,0000.19,-000.02,-000.02,0000.29,0000.07,19.8,26.4,,00.0,0651.9,31.1
2021-12-10T11:06:00Z,00000200,01000000,-000.57,-000.38,0000.27,-000.65,-000.11,-000.21,0000.15,0000.23,0000.20,19.8,26.4,,00.0,0651.9,31.1
2021-12-10T11:07:00Z,00000200,01000000,-000.53,-000.07,0000.20,0000.08,0000.23,0000.43,0000.21,-000.16,-000.15,19.8,26.4,,00.0,0651.9,31.1
2021-12-10T11:08:00Z,00000200,01000000,-000.49,-000.07,0000.02,-000.32,-000.11,-000.12,-000.20,0000.16,0000.29,19.8,26.4,,00.0,0651.9,31.1
2021-12-10T11:09:00Z,00000200,01000000,0000.28,-000.16,0000.11,0000.17,0000.13,-000.03,0000.12,0000.02,-000.34,19.8,26.4,,00.0,0651.9,31.1
2021-12-10T11:10:00Z,00000200,01000000,-000.40,-000.32,-000.08,-000.61,0000.40,-000.17,0000.38,0000.40,0000.22,19.9,26.4,,00.0,0651.9,31.1
2021-12-10T11:11:00Z,00000200,01000000,-000.21,-000.53,0000.18,-000.23,0000.04,0000.17,0000.17,-000.03,0000.07,19.9,26.4,,00.0,0651.9,31.1
2021-12-10T11:12:00Z,00000200,01000000,-000.47,-000.08,0000.32,-000.27,-000.10,0000.29,-000.11,0000.04,0000.25,19.9,26.4,,00.0,0651.9,31.1
2021-12-10T11:13:00Z,00000200,01000000,-000.13,0000.02,0000.47,-000.04,-000.07,0000.28,0000.13,-000.20,0000.05,19.9,26.4,,00.0,0651.9,31.1
2021-12-10T11:14:00Z,00000200,01000000,-000.42,0000.08,0000.02,0000.22,0000.46,-000.09,0000.27,0000.38,-000.10,19.9,26.4,,00.0,0651.9,31.1
2021-12-10T11:15:00Z,00000200,01000000,-000.57,0000.04,0000.18,-000.13,0000.08,-000.11,0000.20,0000.10,0000.26,20.0,26.4,,00.0,0651.9,31.1
2021-12-10T11:16:00Z,00000200,01000000,-000.37,-000.21,0000.11,-000.30,0000.04,-000.01,-000.10,0000.22,-000.29,20.0,26.4,,00.0,0651.9,31.1
2021-12-10T11:17:00Z,00000200,01000000,-000.36,-000.07,0000.03,0000.09,0000.11,-000.11,0000.11,-000.34,0000.16,20.0,26.4,,00.0,0651.9,31.1
2021-12-10T11:18:00Z,00000200,01000000,0000.04,0000.04,0000.12,-000.15,0000.19,0000.05,0000.32,0000.57,0000.68,20.0,26.4,,00.0,0651.9,31.1
2021-12-10T11:19:00Z,00000200,01000000,-000.31,-000.34,0000.01,-000.00,0000.14,0000.04,-000.14,-000.20,-000.36,20.0,26.4,,00.0,0652.0,31.1
2021-12-10T11:20:00Z,00000200,01000000,-001.08,-000.35,-000.03,-000.32,0000.19,-000.14,-000.02,0000.03,-000.20,20.0,26.4,,00.0,0652.0,31.1
2021-12-10T11:21:00Z,00000200,01000000,0000.65,0000.00,-000.06,-000.06,0000.04,0000.14,0000.16,0000.10,0000.21,20.0,26.4,,00.0,0651.9,31.1
2021-12-10T11:22:00Z,00000200,01000000,0000.45,-000.04,0000.40,0000.43,0000.06,-000.18,0000.05,0000.57,0000.01,20.0,26.4,,00.0,0652.0,31.1
2021-12-10T11:23:00Z,00000200,01000000,-000.43,-000.20,0000.52,0000.92,0000.20,0000.01,0000.01,-000.17,0000.52,20.0,26.4,,00.0,0652.0,31.1
2021-12-10T11:24:00Z,00000200,01000000,-000.17,-000.23,-000.06,0000.01,-000.09,-000.19,0000.52,0000.24,-000.35,20.1,26.5,,00.0,0652.0,31.1
2021-12-10T11:25:00Z,00000200,01000000,0000.05,0000.08,0000.30,0000.94,0000.35,0000.13,-000.03,-000.06,0000.34,20.1,26.5,,00.0,0652.0,31.1
2021-12-10T11:26:00Z,00000200,01000000,0000.07,0000.03,-000.09,-000.60,-000.02,-000.07,0000.31,0000.07,0000.28,20.1,26.5,,00.0,0652.1,31.1
2021-12-10T11:27:00Z,00000200,01000000,0000.28,0000.24,0000.19,-000.06,0000.05,0000.03,0000.01,0000.45,0000.05,20.1,26.5,,00.0,0652.1,31.1
2021-12-10T11:28:00Z,00000200,01000000,0000.01,-000.14,0000.41,-000.05,0000.04,0000.02,-000.10,-000.05,-000.26,20.1,26.5,,00.0,0652.1,31.1
2021-12-10T11:29:00Z,00000200,01000000,-000.31,-000.21,0000.04,0000.52,0000.21,-000.27,0000.16,-000.09,0000.06,20.2,26.5,,00.0,0652.1,31.1
2021-12-10T11:30:00Z,00000200,01000000,-000.22,-000.15,0000.17,0000.09,0000.22,0000.01,0000.23,0000.08,0000.23,20.2,26.5,,00.0,0652.1,31.1
2021-12-10T11:31:00Z,00000200,01000000,-000.13,-000.32,-000.02,-000.44,-000.07,-000.01,-000.00,0000.49,0000.13,20.2,26.5,,00.0,0652.1,31.1
2021-12-10T11:32:00Z,00000200,01000000,-000.55,-000.14,0000.04,-000.93,-000.24,-000.08,0000.12,-000.29,0000.04,20.2,26.5,,00.0,0652.1,31.1
2021-12-10T11:33:00Z,00000200,01000000,0000.27,-000.22,0000.11,-000.80,-000.00,-000.06,-000.17,0000.11,0000.11,20.2,26.5,,00.0,0652.1,31.1
2021-12-10T11:34:00Z,00000200,01000000,-000.42,0000.25,0000.32,-000.03,0000.01,0000.13,0000.34,0000.51,-000.20,20.2,26.6,,00.0,0652.1,31.1
2021-12-10T11:35:00Z,00000200,01000000,-000.46,0000.33,-000.24,-000.57,0000.20,-000.44,-000.02,-000.13,0000.11,20.2,26.6,,00.0,0652.2,31.1
2021-12-10T11:36:00Z,00000200,01000000,-000.34,-000.24,-000.38,-000.28,-000.03,0000.05,0000.28,0000.17,0000.16,20.2,26.6,,00.0,0652.2,31.1
2021-12-10T11:37:00Z,00000200,01000000,0000.13,-000.35,0000.21,0000.36,-000.30,0000.04,-000.08,-000.14,-000.09,20.3,26.6,,00.0,0652.2,31.1
2021-12-10T11:38:00Z,00000200,01000000,0000.29,-000.17,0000.11,-000.27,0000.22,-000.03,0000.52,0000.46,0000.28,20.3,26.6,,00.0,0652.1,31.1
2021-12-10T11:39:00Z,00000200,01000000,-000.05,-000.31,0000.12,-000.08,-000.22,0000.09,-000.23,-000.29,0000.09,20.2,26.6,,00.0,0652.1,31.1
2021-12-10T11:40:00Z,00000200,01000000,0000.58,0000.13,0000.03,0000.37,-000.03,-000.18,0000.33,0000.71,0000.30,20.1,26.6,,00.0,0652.1,31.1
2021-12-10T11:41:00Z,00000200,01000000,-000.97,-000.07,0000.19,-000.29,0000.25,0000.16,-000.01,-000.33,-000.37,20.1,26.6,,00.0,0652.1,31.1
2021-12-10T11:42:00Z,00000200,01000000,-000.40,-000.13,0000.01,-000.43,0000.24,0000.01,-000.06,0000.24,0000.42,20.1,26.5,,00.0,0652.1,31.1
2021-12-10T11:43:00Z,00000200,01000000,-000.27,0000.05,0000.03,0000.14,0000.38,0000.04,0000.64,0000.17,-000.13,20.1,26.5,,00.0,0652.1,31.1
2021-12-10T11:44:00Z,00000200,01000000,-000.23,0000.08,0000.25,0000.03,-000.15,0000.00,-000.09,0000.13,0000.34,20.1,26.6,,00.0,0652.2,31.1
2021-12-10T11:45:00Z,00000200,01000000,0000.02,-000.22,0000.26,-000.36,0000.05,0000.12,0000.11,-000.01,0000.03,20.2,26.5,,00.0,0652.2,31.1
2021-12-10T11:46:00Z,00000200,01000000,0000.13,-000.18,-000.17,0000.49,0000.16,-000.33,0000.03,0000.34,-000.27,20.2,26.6,,00.0,0652.2,31.1
2021-12-10T11:47:00Z,00000200,01000000,-000.21,-000.27,0000.07,0000.09,0000.23,0000.18,0000.04,-000.16,0000.26,20.1,26.6,,00.0,0652.2,31.1
2021-12-10T11:48:00Z,00000200,01000000,-000.09,0000.03,0000.64,-000.21,0000.18,-000.06,0000.08,0000.22,-000.01,20.1,26.6,,00.0,0652.2,31.1
2021-12-10T11:49:00Z,00000200,01000000,0000.33,-000.13,0000.08,0000.30,-000.05,0000.05,0000.03,0000.23,-000.09,20.0,26.5,,00.0,0652.2,31.1
2021-12-10T11:50:00Z,00000200,01000000,-000.07,-000.47,0000.20,0000.31,-000.17,0000.12,0000.54,-000.05,0000.28,19.9,26.5,,00.0,0652.2,31.1
2021-12-10T11:51:00Z,00000200,01000000,-000.85,-000.07,0000.19,-000.03,-000.12,-000.14,-000.21,0000.07,-000.16,19.8,26.5,,00.0,0652.1,31.1
2021-12-10T11:52:00Z,00000200,01000000,-000.17,0000.16,0000.32,0000.18,0000.00,0000.44,0000.04,0000.17,0000.12,19.7,26.4,,00.0,0652.1,31.1
2021-12-10T11:53:00Z,00000200,01000000,-000.05,0000.06,0000.26,-000.07,0000.11,0000.09,-000.05,-000.19,-000.10,19.6,26.4,,00.0,0652.1,31.0
2021-12-10T11:54:00Z,00000200,01000000,0000.28,-000.05,0000.21,0000.45,-000.06,0000.03,0000.16,0000.10,0000.25,19.5,26.3,,00.0,0652.1,31.0
2021-12-10T11:55:00Z,00000200,01000000,-000.62,-000.07,0000.15,0000.25,0000.04,-000.16,-000.16,-000.15,-000.17,19.4,26.3,,00.0,0652.1,31.0
2021-12-10T11:56:00Z,00000200,01000000,-000.25,-000.44,-000.09,-000.31,-000.31,-000.28,0000.11,0000.32,0000.26,19.4,26.2,,00.0,0652.1,31.0
2021-12-10T11:57:00Z,00000200,41000000,,,,,,,-000.52,-000.98,-000.57,19.4,26.2,,00.0,0652.1,31.0
2021-12-10T11:58:00Z,00000200,61000000,,,,,,,0000.24,0000.41,0000.18,19.1,26.3,,00.0,0651.1,31.0
2021-12-10T11:59:00Z,00000200,21000000,,,,,,,0000.13,-000.26,0000.04,19.1,26.4,,00.0,0651.1,31.0
